Грис (Пинцгау)

Австрия     47°17′23″N   12°47′41″E
темп.,
°C
ветер,
м/с
пор.,
м/с
влажн.,
%
обл.,
%
осадки,
мм/ч
давл.,
гПа
погр.,
м
9 мая, вс
вс923:00+4ю4462100 0.0 101948
02:00+4ююз456120 0.0 101956
05:00+4ю436235 0.0 101830
08:00+9ю346315 0.0 1016109
11:00+14ю44505 0.0 1014581
14:00+16ю45485 0.0 10131090
17:00+15ю565217 0.0 10121050
20:00+9ю588036 0.0 1013261
10 мая, пн
пн1023:00+7ю698318 0.0 1014230
02:00+6ю7108115 0.0 1013212
05:00+5ю698137 0.0 1013180
08:00+9ю686893 0.0 1011244
11:00+15ююз55480 0.0 1011735
14:00+19ю44404 0.0 10091444
17:00+18ю554660 0.0 10091484
20:00+11ю5779100 0.0 1011225
11 мая, вт
вт1123:00+9ю5880100 0.0 1011298
02:00+7ю587999 0.0 1011321
05:00+7ю578119 0.0 1010266
08:00+10ю5773100 0.0 1010462
11:00+14ю4650100 0.0 10081260
14:00+15ю51042100 0.0 10061773
17:00+13ю4755100 0.1 10051325
20:00+7ю357933 0.1 1007205
12 мая, ср
ср1223:00+6ю3482100 0.1 1007151
02:00+5зсз1197100 2.5 1006105
05:00+4зсз2399100 7.8 1006445
08:00+3сз2399100 16.6 1008429
11:00+2сз2299100 3.3 1009217
14:00+3сз2299100 4.1 1009304
17:00+3ссз2299100 0.8 1009332
20:00+1сз2299100 2.1 1010242
13 мая, чт
чт1323:00+1зсз22100100 2.3 1010128
02:00+1зсз22100100 5.0 101094
05:000зсз23100100 2.4 1009101
08:00+1зсз23100100 4.3 1009107
11:00+2зсз23100100 1.8 1009138
14:00+2сз22100100 2.9 1009188
17:00+2сз22100100 1.0 1010180
20:00+2сз22100100 1.3 1010119